Time,TemperatureF,DewpointF,PressureIn,WindDirection,WindDirectionDegrees,WindSpeedMPH,WindSpeedGustMPH,Humidity,HourlyPrecipIn,Conditions,Clouds,dailyrainin,SoftwareType,DateUTC
2013-07-22 00:11:00,63.2,60.0,29.96,NNW,344,0.0,0.0,89,0.00,,,0.00,weatherlink.com 1.10,2013-07-22 04:11:00,
2013-07-22 00:26:00,63.0,59.0,29.96,NNW,337,0.0,2.0,88,0.00,,,0.00,weatherlink.com 1.10,2013-07-22 04:26:00,
2013-07-22 00:42:00,62.4,59.0,29.95,NNW,334,0.0,2.0,89,0.00,,,0.00,weatherlink.com 1.10,2013-07-22 04:42:00,
2013-07-22 00:57:00,62.1,59.0,29.95,WNW,303,2.0,2.0,90,0.00,,,0.00,weatherlink.com 1.10,2013-07-22 04:57:00,
2013-07-22 01:12:00,62.0,59.0,29.95,WNW,294,0.0,1.0,91,0.00,,,0.00,weatherlink.com 1.10,2013-07-22 05:12:00,
2013-07-22 01:27:00,61.9,59.0,29.95,NNW,330,0.0,0.0,90,0.00,,,0.00,weatherlink.com 1.10,2013-07-22 05:27:00,
2013-07-22 01:42:00,61.7,59.0,29.95,NNW,329,0.0,0.0,91,0.00,,,0.00,weatherlink.com 1.10,2013-07-22 05:42:00,
2013-07-22 01:57:00,61.5,59.0,29.95,NW,318,0.0,0.0,91,0.00,,,0.00,weatherlink.com 1.10,2013-07-22 05:57:00,
2013-07-22 02:12:00,61.5,59.0,29.95,NW,318,0.0,0.0,91,0.00,,,0.00,weatherlink.com 1.10,2013-07-22 06:12:00,
2013-07-22 02:27:00,61.6,59.0,29.94,NNW,337,2.0,2.0,92,0.00,,,0.00,weatherlink.com 1.10,2013-07-22 06:27:00,
2013-07-22 02:42:00,61.4,59.0,29.94,NW,324,0.0,2.0,93,0.00,,,0.00,weatherlink.com 1.10,2013-07-22 06:42:00,
2013-07-22 02:57:00,61.9,60.0,29.95,WNW,294,0.0,2.0,92,0.00,,,0.00,weatherlink.com 1.10,2013-07-22 06:57:00,
2013-07-22 03:12:00,62.4,60.0,29.95,NNW,330,0.0,0.0,92,0.00,,,0.00,weatherlink.com 1.10,2013-07-22 07:12:00,
2013-07-22 03:27:00,62.6,60.0,29.95,NW,313,0.0,0.0,92,0.00,,,0.00,weatherlink.com 1.10,2013-07-22 07:27:00,
2013-07-22 03:42:00,63.0,61.0,29.94,NNW,328,0.0,0.0,93,0.00,,,0.00,weatherlink.com 1.10,2013-07-22 07:42:00,
2013-07-22 03:57:00,63.0,61.0,29.94,NNW,334,0.0,0.0,93,0.00,,,0.00,weatherlink.com 1.10,2013-07-22 07:57:00,
2013-07-22 04:12:00,63.0,61.0,29.95,NW,326,0.0,0.0,92,0.00,,,0.00,weatherlink.com 1.10,2013-07-22 08:12:00,
2013-07-22 04:27:00,63.1,61.0,29.94,NNW,327,0.0,0.0,92,0.00,,,0.00,weatherlink.com 1.10,2013-07-22 08:27:00,
2013-07-22 04:42:00,63.2,61.0,29.95,WSW,252,0.0,0.0,93,0.00,,,0.00,weatherlink.com 1.10,2013-07-22 08:42:00,
2013-07-22 04:57:00,63.5,62.0,29.95,NNW,332,0.0,0.0,93,0.00,,,0.00,weatherlink.com 1.10,2013-07-22 08:57:00,
2013-07-22 05:12:00,63.5,62.0,29.95,NW,321,0.0,0.0,94,0.00,,,0.00,weatherlink.com 1.10,2013-07-22 09:12:00,
2013-07-22 05:27:00,63.5,62.0,29.95,WSW,250,0.0,0.0,93,0.00,,,0.00,weatherlink.com 1.10,2013-07-22 09:27:00,
2013-07-22 05:42:00,63.7,62.0,29.96,NNW,337,1.0,2.0,94,0.00,,,0.00,weatherlink.com 1.10,2013-07-22 09:42:00,
2013-07-22 05:57:00,63.4,62.0,29.96,NNW,337,2.0,4.0,94,0.00,,,0.00,weatherlink.com 1.10,2013-07-22 09:57:00,
2013-07-22 06:12:00,63.3,62.0,29.96,WNW,282,0.0,0.0,94,0.00,,,0.00,weatherlink.com 1.10,2013-07-22 10:12:00,
2013-07-22 06:27:00,63.2,62.0,29.96,NNW,342,0.0,0.0,95,0.00,,,0.00,weatherlink.com 1.10,2013-07-22 10:27:00,
2013-07-22 06:42:00,63.4,62.0,29.96,NNW,348,0.0,0.0,94,0.00,,,0.00,weatherlink.com 1.10,2013-07-22 10:42:00,
2013-07-22 06:57:00,64.2,63.0,29.96,ESE,102,1.0,4.0,95,0.00,,,0.00,weatherlink.com 1.10,2013-07-22 10:57:00,
2013-07-22 07:12:00,65.1,63.0,29.96,ENE,64,0.0,0.0,94,0.00,,,0.00,weatherlink.com 1.10,2013-07-22 11:12:00,
2013-07-22 07:27:00,65.4,64.0,29.97,SSE,162,0.0,3.0,94,0.00,,,0.00,weatherlink.com 1.10,2013-07-22 11:27:00,
2013-07-22 07:42:00,65.0,63.0,29.98,NNW,348,0.0,5.0,93,0.00,,,0.00,weatherlink.com 1.10,2013-07-22 11:42:00,
2013-07-22 07:57:00,64.0,62.0,29.98,NNW,329,0.0,3.0,93,0.00,,,0.00,weatherlink.com 1.10,2013-07-22 11:57:00,
2013-07-22 08:12:00,63.6,62.0,29.98,NNW,348,2.0,3.0,94,0.00,,,0.00,weatherlink.com 1.10,2013-07-22 12:12:00,
2013-07-22 08:27:00,63.4,62.0,29.97,NNW,337,0.0,0.0,95,0.07,,,0.07,weatherlink.com 1.10,2013-07-22 12:27:00,
2013-07-22 08:42:00,63.5,62.0,29.98,WSW,246,0.0,1.0,95,0.10,,,0.10,weatherlink.com 1.10,2013-07-22 12:42:00,
2013-07-22 08:57:00,63.6,62.0,29.99,NNW,345,0.0,4.0,95,0.17,,,0.17,weatherlink.com 1.10,2013-07-22 12:57:00,
2013-07-22 09:13:00,63.3,62.0,29.98,SW,226,0.0,1.0,95,0.36,,,0.36,weatherlink.com 1.10,2013-07-22 13:13:00,
2013-07-22 09:28:00,63.7,62.0,29.97,SW,226,0.0,0.0,95,0.29,,,0.37,weatherlink.com 1.10,2013-07-22 13:28:00,
2013-07-22 09:43:00,64.2,63.0,29.98,SW,226,0.0,0.0,95,0.28,,,0.38,weatherlink.com 1.10,2013-07-22 13:43:00,
2013-07-22 09:58:00,64.9,64.0,29.98,SW,231,0.0,0.0,95,0.19,,,0.39,weatherlink.com 1.10,2013-07-22 13:58:00,
2013-07-22 10:13:00,65.3,64.0,29.99,NNW,341,0.0,0.0,95,0.06,,,0.42,weatherlink.com 1.10,2013-07-22 14:13:00,
2013-07-22 10:27:00,65.0,64.0,29.98,NNW,340,0.0,0.0,95,0.15,,,0.52,weatherlink.com 1.10,2013-07-22 14:27:00,
2013-07-22 10:42:00,65.4,64.0,29.98,East,81,0.0,0.0,95,0.27,,,0.65,weatherlink.com 1.10,2013-07-22 14:42:00,
2013-07-22 10:57:00,65.7,64.0,29.98,SE,125,3.0,7.0,95,0.27,,,0.66,weatherlink.com 1.10,2013-07-22 14:57:00,
2013-07-22 11:13:00,65.8,64.0,29.98,East,94,6.0,11.0,95,0.26,,,0.68,weatherlink.com 1.10,2013-07-22 15:13:00,
2013-07-22 11:28:00,65.8,64.0,29.97,ENE,58,1.0,10.0,95,0.19,,,0.72,weatherlink.com 1.10,2013-07-22 15:28:00,
2013-07-22 11:43:00,65.9,65.0,29.97,ENE,74,2.0,15.0,95,0.07,,,0.72,weatherlink.com 1.10,2013-07-22 15:43:00,
2013-07-22 11:58:00,66.0,65.0,29.97,SE,128,4.0,12.0,95,0.06,,,0.72,weatherlink.com 1.10,2013-07-22 15:58:00,
2013-07-22 12:14:00,66.4,65.0,29.96,ESE,107,1.0,11.0,95,0.04,,,0.72,weatherlink.com 1.10,2013-07-22 16:14:00,
2013-07-22 12:28:00,67.7,66.0,29.96,East,97,3.0,11.0,94,0.00,,,0.72,weatherlink.com 1.10,2013-07-22 16:28:00,
2013-07-22 12:43:00,68.1,66.0,29.96,South,176,3.0,9.0,92,0.00,,,0.72,weatherlink.com 1.10,2013-07-22 16:43:00,
2013-07-22 12:58:00,69.1,67.0,29.96,ESE,119,6.0,10.0,92,0.00,,,0.72,weatherlink.com 1.10,2013-07-22 16:58:00,
2013-07-22 13:13:00,69.4,66.0,29.96,ESE,110,0.0,9.0,90,0.00,,,0.72,weatherlink.com 1.10,2013-07-22 17:13:00,
2013-07-22 13:28:00,69.6,67.0,29.95,East,80,5.0,8.0,90,0.00,,,0.72,weatherlink.com 1.10,2013-07-22 17:28:00,
2013-07-22 13:43:00,69.7,67.0,29.95,SW,222,0.0,8.0,90,0.00,,,0.72,weatherlink.com 1.10,2013-07-22 17:43:00,
2013-07-22 13:58:00,69.9,66.0,29.95,SSE,149,4.0,8.0,88,0.00,,,0.72,weatherlink.com 1.10,2013-07-22 17:58:00,
2013-07-22 14:13:00,69.9,67.0,29.94,SSE,162,0.0,7.0,89,0.00,,,0.72,weatherlink.com 1.10,2013-07-22 18:13:00,
2013-07-22 14:28:00,69.7,67.0,29.95,East,91,3.0,7.0,90,0.00,,,0.72,weatherlink.com 1.10,2013-07-22 18:28:00,
2013-07-22 14:58:00,69.6,67.0,29.94,ESE,107,1.0,8.0,91,0.00,,,0.72,weatherlink.com 1.10,2013-07-22 18:58:00,
2013-07-22 15:13:00,69.5,67.0,29.93,ESE,107,3.0,7.0,91,0.00,,,0.72,weatherlink.com 1.10,2013-07-22 19:13:00,
2013-07-22 15:28:00,69.9,67.0,29.93,SE,128,4.0,11.0,90,0.00,,,0.72,weatherlink.com 1.10,2013-07-22 19:28:00,
2013-07-22 15:43:00,70.7,67.0,29.92,ENE,75,4.0,9.0,89,0.00,,,0.72,weatherlink.com 1.10,2013-07-22 19:43:00,
2013-07-22 16:14:00,72.1,68.0,29.91,ESE,105,4.0,9.0,88,0.00,,,0.72,weatherlink.com 1.10,2013-07-22 20:14:00,
2013-07-22 16:29:00,72.6,68.0,29.91,South,178,7.0,9.0,85,0.00,,,0.72,weatherlink.com 1.10,2013-07-22 20:29:00,
2013-07-22 16:44:00,73.1,69.0,29.90,ESE,118,2.0,11.0,87,0.00,,,0.72,weatherlink.com 1.10,2013-07-22 20:44:00,
2013-07-22 16:59:00,73.0,68.0,29.89,East,100,5.0,8.0,85,0.00,,,0.72,weatherlink.com 1.10,2013-07-22 20:59:00,
2013-07-22 17:14:00,72.4,68.0,29.89,ESE,106,6.0,11.0,87,0.00,,,0.72,weatherlink.com 1.10,2013-07-22 21:14:00,
2013-07-22 17:29:00,72.2,69.0,29.88,East,97,3.0,9.0,88,0.00,,,0.72,weatherlink.com 1.10,2013-07-22 21:29:00,
2013-07-22 17:44:00,72.4,69.0,29.87,ESE,102,4.0,9.0,88,0.00,,,0.72,weatherlink.com 1.10,2013-07-22 21:44:00,
2013-07-22 17:59:00,72.3,68.0,29.87,ESE,113,6.0,10.0,87,0.00,,,0.72,weatherlink.com 1.10,2013-07-22 21:59:00,
2013-07-22 18:14:00,72.0,68.0,29.87,East,97,0.0,9.0,88,0.00,,,0.72,weatherlink.com 1.10,2013-07-22 22:14:00,
2013-07-22 18:29:00,71.7,68.0,29.87,East,88,2.0,6.0,89,0.00,,,0.72,weatherlink.com 1.10,2013-07-22 22:29:00,
2013-07-22 18:44:00,71.5,68.0,29.87,South,176,1.0,9.0,89,0.00,,,0.72,weatherlink.com 1.10,2013-07-22 22:44:00,
2013-07-22 18:59:00,71.3,68.0,29.87,SSE,147,3.0,8.0,90,0.00,,,0.72,weatherlink.com 1.10,2013-07-22 22:59:00,
2013-07-22 19:14:00,71.1,68.0,29.87,East,95,2.0,8.0,90,0.00,,,0.72,weatherlink.com 1.10,2013-07-22 23:14:00,
2013-07-22 19:29:00,70.9,68.0,29.87,ESE,102,0.0,6.0,91,0.00,,,0.72,weatherlink.com 1.10,2013-07-22 23:29:00,
2013-07-22 19:44:00,70.5,68.0,29.86,WSW,254,2.0,9.0,91,0.00,,,0.72,weatherlink.com 1.10,2013-07-22 23:44:00,
2013-07-22 19:59:00,70.3,68.0,29.87,East,89,4.0,7.0,91,0.00,,,0.72,weatherlink.com 1.10,2013-07-22 23:59:00,
2013-07-22 20:14:00,70.3,68.0,29.87,WSW,249,1.0,8.0,91,0.00,,,0.72,weatherlink.com 1.10,2013-07-23 00:14:00,
2013-07-22 20:29:00,70.2,68.0,29.86,SSE,156,2.0,10.0,92,0.00,,,0.72,weatherlink.com 1.10,2013-07-23 00:29:00,
2013-07-22 20:44:00,70.0,68.0,29.86,East,90,1.0,9.0,93,0.00,,,0.72,weatherlink.com 1.10,2013-07-23 00:44:00,
2013-07-22 20:59:00,69.6,67.0,29.86,ESE,110,8.0,12.0,91,0.00,,,0.72,weatherlink.com 1.10,2013-07-23 00:59:00,
2013-07-22 21:14:00,69.2,67.0,29.87,SSE,168,3.0,12.0,91,0.00,,,0.72,weatherlink.com 1.10,2013-07-23 01:14:00,
2013-07-22 21:29:00,68.8,66.0,29.87,SSE,152,5.0,12.0,91,0.00,,,0.72,weatherlink.com 1.10,2013-07-23 01:29:00,
2013-07-22 21:44:00,68.5,66.0,29.87,ESE,106,3.0,9.0,92,0.00,,,0.72,weatherlink.com 1.10,2013-07-23 01:44:00,
2013-07-22 21:59:00,68.1,66.0,29.87,NW,318,1.0,11.0,93,0.00,,,0.72,weatherlink.com 1.10,2013-07-23 01:59:00,
2013-07-22 22:14:00,67.7,66.0,29.87,ENE,72,1.0,12.0,93,0.00,,,0.72,weatherlink.com 1.10,2013-07-23 02:14:00,
2013-07-22 22:29:00,67.3,65.0,29.87,NW,321,1.0,12.0,92,0.00,,,0.72,weatherlink.com 1.10,2013-07-23 02:29:00,
2013-07-22 22:44:00,67.1,65.0,29.87,ESE,112,5.0,9.0,92,0.00,,,0.72,weatherlink.com 1.10,2013-07-23 02:44:00,
2013-07-22 22:59:00,66.4,64.0,29.86,ESE,102,1.0,8.0,92,0.00,,,0.72,weatherlink.com 1.10,2013-07-23 02:59:00,
2013-07-22 23:14:00,65.9,64.0,29.86,ESE,102,2.0,10.0,93,0.00,,,0.72,weatherlink.com 1.10,2013-07-23 03:14:00,
2013-07-22 23:29:00,65.5,64.0,29.86,South,173,2.0,9.0,93,0.00,,,0.72,weatherlink.com 1.10,2013-07-23 03:29:00,
2013-07-22 23:44:00,65.3,64.0,29.85,South,183,3.0,10.0,94,0.00,,,0.72,weatherlink.com 1.10,2013-07-23 03:44:00,
2013-07-22 23:59:00,65.0,63.0,29.84,East,85,2.0,9.0,94,0.00,,,0.72,weatherlink.com 1.10,2013-07-23 03:59:00,